Retour au catalogue

SKYKRAFT-1A

ActifScienceSSO
NORAD 55054·PAYLOAD·🇦🇺 Australia

Lancé Jan 3, 2023 depuis Cape Canaveral Space Force Station

Loading…

Prochains Passages (prochaines 24 heures)

TLE

FraisSource: Space-Track

Époque: Sep 14, 2026, 15:04 UTC

1 55054U 23001AX  26257.62794940  .00004394  00000-0  15359-3 0  9994
2 55054  97.3115 313.6191 0009774 164.3937 195.7606 15.30030123205392

Suivez SKYKRAFT-1A en temps réel avec AllMySat

Download on the App Store